Home > Weather > West Palm Beach > Past weeks

Flag for USA Past Weather in West Palm Beach, Florida, USA — Yesterday and Last 2 Weeks

Now
88 °F

Broken clouds.


Feels Like: 102 °F
Forecast: 81 / 89 °F
Wind: 13 mph from East

Location: Palm Beach International Airport

Current Time: Aug 27, 2016 at 1:10:48 PM

Latest Report: Aug 27, 2016 at 11:53 AM


Visibility: 10 mi

Pressure: 29.96 "Hg

Humidity: 73%

Dew Point: 78 °F

Location of West Palm BeachLocation

Past Weather in West Palm Beach — Graph

°F

West Palm Beach Temperature Yesterday

Maximum temperature yesterday: 90 °F (at 1:53 PM)
Minimum temperature yesterday: 79 °F (at 1:03 AM)
Average temperature yesterday: 85 °F

High & Low Weather Summary for the Past Weeks

 TemperatureHumidityPressure
High94 °F (Aug 21, 12:53 PM)90% (Aug 19, 6:53 AM)30.16 "Hg (Aug 19, 6:53 AM)
Low75 °F (Aug 14, 4:53 AM)51% (Aug 22, 3:53 PM)29.90 "Hg (Aug 26, 4:53 PM)
Average86 °F71%30.05 "Hg
* Reported Aug 12 11:53 AM — Aug 27 11:53 AM, West Palm Beach, Weather by CustomWeather, © 2016

Note: Actual official high and low records may vary slightly from our data, if they occured in-between our weather recording intervals... More about our weather records

Advertising

West Palm Beach Weather History for the Previous 24 Hours

Scroll right to see more
 ConditionsComfort  
Time TempWeatherWind HumidityBarometerVisibility
11:53 AM
Sat, Aug 27
88 °FBroken clouds.13 mph73%29.96 "Hg10 mi
10:53 AM86 °FBroken clouds.10 mph72%29.95 "Hg10 mi
9:53 AM88 °FBroken clouds.12 mph65%29.95 "Hg10 mi
8:53 AM86 °FBroken clouds.12 mph72%29.94 "Hg10 mi
7:53 AM84 °FPartly cloudy.9 mph77%29.92 "Hg10 mi
6:53 AM84 °FPartly cloudy.8 mph77%29.91 "Hg10 mi
5:53 AM84 °FPassing clouds.8 mph77%29.90 "Hg10 mi
4:53 AM83 °FPassing clouds.8 mph74%29.90 "Hg10 mi
3:53 AM83 °FPassing clouds.7 mph74%29.90 "Hg10 mi
2:53 AM83 °FPassing clouds.7 mph79%29.92 "Hg10 mi
1:53 AM83 °FPassing clouds.5 mph79%29.93 "Hg10 mi
12:53 AM83 °FPassing clouds.9 mph77%29.95 "Hg10 mi
11:53 PM
Fri, Aug 26
84 °FPassing clouds.7 mph77%29.97 "Hg10 mi
10:53 PM84 °FPartly cloudy.7 mph77%29.99 "Hg10 mi
9:53 PM83 °FPartly cloudy.6 mph82%29.97 "Hg10 mi
8:53 PM82 °FThunderstorms. Partly cloudy.9 mph82%29.95 "Hg10 mi
7:53 PM85 °FBroken clouds.9 mph72%29.93 "Hg10 mi
6:53 PM86 °FBroken clouds.15 mph70%29.92 "Hg10 mi
5:53 PM87 °FBroken clouds.16 mph67%29.91 "Hg10 mi
4:53 PM89 °FBroken clouds.13 mph61%29.90 "Hg10 mi
3:53 PM90 °FBroken clouds.13 mph61%29.92 "Hg10 mi
2:53 PM90 °FBroken clouds.10 mph59%29.92 "Hg10 mi
1:53 PM90 °FBroken clouds.7 mph61%29.94 "Hg10 mi
Weather by CustomWeather, © 2016

See weather overviewHow to use our weather pages